Viciebsk, Belarus

10:09 PM +03 on June 26, 2017 (GMT +0300)
Vitebsk

Weather History for UMII - June, 2013

Change the Weather History Date:

Wednesday, June 26, 2013

  Actual Average Record
Temperature  
Mean Temperature 74 °F -  
Max Temperature 83 °F 72 °F - ()
Min Temperature 66 °F 54 °F - ()
Cooling Degree Days 9    
Growing Degree Days 24 (Base 50)    
Moisture  
Dew Point 65 °F    
Average Humidity 77    
Maximum Humidity 94    
Minimum Humidity 40    
Precipitation  
Precipitation 0.04 in 0.12 in - ()
Sea Level Pressure  
Sea Level Pressure 29.99 in    
Wind  
Wind Speed 2 mph ()    
Max Wind Speed 9 mph    
Max Gust Speed 18 mph    
Visibility 5.2 miles    
Events Rain , Thunderstorm    
T = Trace of Precipitation, MM = Missing Value Source: Averaged Metar Reports

Daily Weather History Graph

Daily Weather History Graph

Search for Another Location

Airport or City:

Trip Planner

Search our weather history database for the weather conditions in past years. The results will help you decide how hot, cold, wet, or windy it might be!

Date:

Astronomy

Jun. 26, 2013 Rise Set
Actual Time 4:20 AM +03 9:43 PM +03
Civil Twilight 3:21 AM +03 10:42 PM +03
Nautical Twilight 1:34 AM +03 12:29 AM +03
Astronomical Twilight Sun does not set Sun does not set
Moon 11:06 PM +03 8:28 AM +03
Length of Visible Light 19h 20m
Length of Day
17h 23m
Waning Gibbous, 88% of the Moon is Illuminated
Jun 26
Waning Gibbous
Jun 30
Last Quarter
Jul 8
New
Jul 16
First Quarter
Jul 22
Full

Hourly Weather History & Observations

Time (+03) Temp. Heat Index Dew Point Humidity Pressure Visibility Wind Dir Wind Speed Gust Speed Precip Events Conditions
12:00 AM 74 °F - 63 °F 61% 29.96 in 6 mi Calm Calm - -   Mostly Cloudy
3:00 AM 71 °F - 65 °F 76% 29.97 in 5 mi SSE 2.2 mph - - Rain Light Rain Showers
6:00 AM 70 °F - 65 °F 81% 29.97 in 6 mi Calm Calm - -   Partly Cloudy
7:00 AM 71.6 °F - 66.2 °F 83% 29.98 in - Calm Calm - N/A   Clear
8:00 AM 77.0 °F - 68.0 °F 74% 29.98 in - Calm Calm - N/A   Clear
9:00 AM 80 °F - 68 °F 58% 29.96 in 6 mi Calm Calm - -   Partly Cloudy
9:00 AM 78.8 °F - 64.4 °F 61% 29.98 in - South 4.5 mph - N/A   Clear
10:00 AM 78.8 °F - 64.4 °F 61% 29.98 in - SE 4.5 mph - N/A   Scattered Clouds
11:00 AM 80.6 °F 81.8 °F 62.6 °F 54% 29.98 in - Variable 2.2 mph - N/A   Mostly Cloudy
11:42 AM 80.6 °F 81.8 °F 62.6 °F 54% 2.98 in - Variable 2.2 mph - N/A Thunderstorm Thunderstorm
12:00 PM 82 °F - 62 °F 40% 29.96 in 6 mi Calm Calm - -   Partly Cloudy
12:00 PM 82.4 °F 83.9 °F 64.4 °F 54% 29.98 in - Variable 2.2 mph - N/A Thunderstorm Thunderstorm
1:00 PM 75.2 °F - 60.8 °F 61% 29.98 in - SSW 8.9 mph 17.9 mph N/A Rain , Thunderstorm Light Thunderstorms and Rain
2:00 PM 69.8 °F - 64.4 °F 83% 29.98 in - ESE 6.7 mph - N/A Rain , Thunderstorm Light Thunderstorms and Rain
3:00 PM 71 °F - 65 °F 76% 29.99 in 6 mi SE 2.2 mph - - Thunderstorm Thunderstorm
3:00 PM 66.2 °F - 64.4 °F 94% 30.01 in - ENE 6.7 mph - N/A Rain , Thunderstorm Light Thunderstorms and Rain
3:19 PM 66.2 °F - 64.4 °F 94% 30.01 in - East 6.7 mph - N/A Rain Light Rain Showers
3:21 PM 66.2 °F - 64.4 °F 94% 30.01 in - East 6.7 mph - N/A Rain , Thunderstorm Light Thunderstorms and Rain
4:00 PM 68.0 °F - 66.2 °F 94% 30.01 in 3.7 mi East 4.5 mph - N/A Rain , Thunderstorm Light Thunderstorms and Rain
4:11 PM 68.0 °F - 66.2 °F 94% 30.01 in - East 4.5 mph - N/A Rain Light Rain Showers
4:16 PM 68.0 °F - 66.2 °F 94% 30.01 in - East 4.5 mph - N/A Rain Light Rain Showers
4:30 PM 68.0 °F - 66.2 °F 94% 30.01 in 3.7 mi East 6.7 mph - N/A Rain Light Rain Showers
5:00 PM 68.0 °F - 64.4 °F 88% 30.01 in - East 6.7 mph - N/A   Overcast
6:00 PM 70 °F - 66 °F 83% 29.99 in 6 mi ESE 2.2 mph - - Rain Light Rain Showers
6:00 PM 68.0 °F - 66.2 °F 94% 30.01 in 3.7 mi Calm Calm - N/A Rain Light Rain Showers
7:00 PM 69.8 °F - 66.2 °F 88% 29.98 in - East 6.7 mph - N/A   Overcast
8:00 PM 69.8 °F - 66.2 °F 88% 30.01 in - East 4.5 mph - N/A   Clear
9:00 PM 69 °F - 67 °F 91% 30.00 in 5 mi East 2.2 mph - -   Mist